Weather History for KLZZ - April, 2014

Change the Weather History Date:

Saturday, April 26, 2014

  Actual Average (KGRK) Record (KGRK)
Temperature  
Mean Temperature 72 °F -  
Max Temperature 82 °F 78 °F 100 °F (2011)
Min Temperature 62 °F 58 °F 50 °F (2007)
Cooling Degree Days 7    
Growing Degree Days 22 (Base 50)    
Moisture  
Dew Point 65 °F    
Average Humidity 77    
Maximum Humidity 96    
Minimum Humidity 58    
Precipitation  
Precipitation 0.00 in - - ()
Sea Level Pressure  
Sea Level Pressure 29.77 in    
Wind  
Wind Speed 8 mph (SSE)    
Max Wind Speed 18 mph    
Max Gust Speed 25 mph    
Visibility 10 miles    
Events      
Averages and records for this station are not official NWS values.
T = Trace of Precipitation, MM = Missing Value Source: NWS Daily Summary

Daily Weather History Graph

Daily Weather History Graph

Search for Another Location

Airport or City:

Trip Planner

Search our weather history database for the weather conditions in past years. The results will help you decide how hot, cold, wet, or windy it might be!

Date:

Astronomy

Apr. 26, 2014 Rise Set
Actual Time 6:53 AM CDT 8:08 PM CDT
Civil Twilight 6:27 AM CDT 8:33 PM CDT
Nautical Twilight 5:57 AM CDT 9:04 PM CDT
Astronomical Twilight 5:26 AM CDT 9:35 PM CDT
Moon 5:06 AM CDT (4/26) 5:48 PM CDT (4/26)
Length of Visible Light 14h 06m
Length of Day
13h 15m
Waning Crescent, 8% of the Moon is Illuminated
Apr 26
Waning Crescent
Apr 29
New
May 6
First Quarter
May 14
Full
May 21
Last Quarter

Hourly Weather History & Observations

Time (CDT) Temp. Heat Index Dew Point Humidity Pressure Visibility Wind Dir Wind Speed Gust Speed Precip Events Conditions
12:15 AM 70.7 °F - 59.0 °F 66% 29.89 in 10.0 mi SSE 5.8 mph - N/A   Clear
12:35 AM 70.7 °F - 60.6 °F 70% 29.89 in 10.0 mi SSE 6.9 mph - N/A   Clear
12:55 AM 70.7 °F - 62.2 °F 75% 29.88 in 10.0 mi SSE 5.8 mph - N/A   Clear
1:15 AM 70.7 °F - 63.7 °F 78% 29.87 in 10.0 mi SSE 4.6 mph - N/A   Clear
1:35 AM 70.7 °F - 64.8 °F 81% 29.87 in 10.0 mi SE 3.5 mph - N/A   Clear
1:55 AM 70.7 °F - 65.8 °F 85% 29.86 in 10.0 mi SSE 8.1 mph - N/A   Clear
2:15 AM 70.7 °F - 64.4 °F 80% 29.85 in 10.0 mi SSE 6.9 mph - N/A   Clear
2:35 AM 70.7 °F - 64.8 °F 81% 29.85 in 10.0 mi South 5.8 mph - N/A   Clear
2:55 AM 70.7 °F - 65.5 °F 83% 29.84 in 10.0 mi SSE 5.8 mph - N/A   Clear
3:15 AM 69.6 °F - 65.1 °F 86% 29.83 in 10.0 mi SSE 5.8 mph - N/A   Clear
3:35 AM 68.0 °F - 64.4 °F 88% 29.82 in 10.0 mi SSE 4.6 mph - N/A   Clear
3:55 AM 65.5 °F - 62.6 °F 90% 29.81 in 10.0 mi SSE 4.6 mph - N/A   Clear
4:15 AM 65.5 °F - 62.8 °F 91% 29.81 in 10.0 mi SE 4.6 mph - N/A   Clear
4:35 AM 63.9 °F - 61.3 °F 91% 29.82 in 10.0 mi SSE 3.5 mph - N/A   Clear
4:55 AM 63.0 °F - 61.2 °F 94% 29.82 in 10.0 mi South 3.5 mph - N/A   Clear
5:15 AM 63.0 °F - 61.2 °F 94% 29.81 in 10.0 mi Calm Calm - N/A   Clear
5:35 AM 63.0 °F - 61.0 °F 93% 29.82 in 10.0 mi Calm Calm - N/A   Clear
5:55 AM 63.1 °F - 61.0 °F 93% 29.81 in 10.0 mi SSE 3.5 mph - N/A   Clear
6:15 AM 63.5 °F - 61.5 °F 93% 29.81 in 10.0 mi SSE 4.6 mph - N/A   Clear
6:35 AM 63.0 °F - 61.2 °F 94% 29.81 in 10.0 mi SE 4.6 mph - N/A   Clear
6:55 AM 63.0 °F - 61.2 °F 94% 29.81 in 10.0 mi SE 4.6 mph - N/A   Clear
7:15 AM 62.6 °F - 61.0 °F 94% 29.83 in 10.0 mi SSE 3.5 mph - N/A   Clear
7:35 AM 63.0 °F - 61.7 °F 96% 29.83 in 10.0 mi SSE 5.8 mph - N/A   Mostly Cloudy
7:55 AM 64.4 °F - 62.1 °F 92% 29.84 in 10.0 mi South 6.9 mph - N/A   Mostly Cloudy
8:15 AM 65.5 °F - 62.2 °F 89% 29.83 in 10.0 mi South 9.2 mph - N/A   Overcast
8:35 AM 66.9 °F - 63.3 °F 88% 29.83 in 10.0 mi SSE 9.2 mph - N/A   Overcast
8:55 AM 68.0 °F - 63.9 °F 87% 29.83 in 10.0 mi SSE 9.2 mph 16.1 mph N/A   Overcast
9:15 AM 70.7 °F - 65.8 °F 85% 29.83 in 10.0 mi SSE 12.7 mph - N/A   Overcast
9:35 AM 70.7 °F - 66.2 °F 86% 29.84 in 10.0 mi SSE 11.5 mph 17.3 mph N/A   Overcast
9:55 AM 70.7 °F - 66.2 °F 86% 29.83 in 10.0 mi South 11.5 mph - N/A   Overcast
10:15 AM 70.7 °F - 66.2 °F 86% 29.84 in 10.0 mi South 9.2 mph - N/A   Overcast
10:35 AM 70.7 °F - 66.2 °F 86% 29.84 in 10.0 mi South 8.1 mph - N/A   Overcast
10:55 AM 70.7 °F - 65.5 °F 83% 29.84 in 10.0 mi South 9.2 mph - N/A   Overcast
11:15 AM 71.2 °F - 65.1 °F 81% 29.84 in 10.0 mi South 11.5 mph 16.1 mph N/A   Overcast
11:35 AM 73.0 °F - 66.4 °F 80% 29.84 in 10.0 mi South 10.4 mph 17.3 mph N/A   Overcast
11:55 AM 73.0 °F - 66.0 °F 79% 29.84 in 10.0 mi South 10.4 mph 17.3 mph N/A   Overcast
12:15 PM 75.6 °F - 67.3 °F 75% 29.83 in 10.0 mi SSE 12.7 mph 16.1 mph N/A   Overcast
12:35 PM 75.6 °F - 67.1 °F 75% 29.81 in 10.0 mi SSE 11.5 mph 18.4 mph N/A   Mostly Cloudy
12:55 PM 75.6 °F - 65.3 °F 70% 29.80 in 10.0 mi South 10.4 mph - N/A   Mostly Cloudy
1:15 PM 78.1 °F - 66.0 °F 66% 29.79 in 10.0 mi SSE 15.0 mph 19.6 mph N/A   Scattered Clouds
1:35 PM 78.6 °F - 64.9 °F 63% 29.77 in 10.0 mi SSE 11.5 mph 20.7 mph N/A   Scattered Clouds
1:55 PM 81.3 °F 83.3 °F 65.7 °F 59% 29.77 in 10.0 mi SSE 15.0 mph 19.6 mph N/A   Clear
2:15 PM 81.5 °F 83.4 °F 65.5 °F 58% 29.75 in 10.0 mi SE 16.1 mph 21.9 mph N/A   Clear
2:35 PM 80.6 °F 82.5 °F 65.5 °F 60% 29.75 in 10.0 mi SSE 13.8 mph 21.9 mph N/A   Scattered Clouds
2:55 PM 80.6 °F 82.5 °F 65.7 °F 60% 29.74 in 10.0 mi SSE 16.1 mph 20.7 mph N/A   Scattered Clouds
3:15 PM 80.6 °F 82.7 °F 65.8 °F 61% 29.73 in 10.0 mi SSE 11.5 mph 21.9 mph N/A   Clear
3:35 PM 81.7 °F 83.8 °F 66.2 °F 59% 29.72 in 10.0 mi SSE 13.8 mph 24.2 mph N/A   Scattered Clouds
3:55 PM 81.3 °F 83.3 °F 65.7 °F 59% 29.71 in 10.0 mi SE 17.3 mph - N/A   Scattered Clouds
4:15 PM 81.7 °F 83.6 °F 65.8 °F 58% 29.70 in 10.0 mi SSE 18.4 mph 25.3 mph N/A   Scattered Clouds
4:35 PM 82.4 °F 84.6 °F 66.4 °F 58% 29.69 in 10.0 mi South 13.8 mph 24.2 mph N/A   Scattered Clouds
4:55 PM 81.7 °F 83.6 °F 65.8 °F 58% 29.69 in 10.0 mi SE 13.8 mph 25.3 mph N/A   Clear
5:15 PM 80.6 °F 82.5 °F 65.5 °F 60% 29.69 in 10.0 mi South 15.0 mph 20.7 mph N/A   Clear
5:35 PM 80.6 °F 82.5 °F 65.7 °F 60% 29.69 in 10.0 mi SSE 12.7 mph 24.2 mph N/A   Scattered Clouds
5:55 PM 80.6 °F 82.7 °F 66.2 °F 61% 29.69 in 10.0 mi SSE 11.5 mph 20.7 mph N/A   Scattered Clouds
6:15 PM 80.6 °F 82.7 °F 66.2 °F 61% 29.69 in 10.0 mi SSE 15.0 mph 21.9 mph N/A   Scattered Clouds
6:35 PM 80.6 °F 82.8 °F 66.4 °F 62% 29.69 in 10.0 mi SSE 10.4 mph 16.1 mph N/A   Scattered Clouds
7:15 PM 80.6 °F 82.9 °F 66.9 °F 63% 29.66 in 10.0 mi SSE 10.4 mph 21.9 mph N/A   Clear
7:35 PM 80.6 °F 83.2 °F 67.6 °F 65% 29.66 in 10.0 mi SSE 11.5 mph 17.3 mph N/A   Clear
7:55 PM 79.3 °F - 66.7 °F 65% 29.66 in 10.0 mi SSE 9.2 mph 16.1 mph N/A   Clear
8:15 PM 78.1 °F - 66.4 °F 67% 29.66 in 10.0 mi SSE 8.1 mph - N/A   Clear
8:35 PM 78.3 °F - 66.6 °F 67% 29.66 in 10.0 mi SSE 6.9 mph - N/A   Mostly Cloudy
8:55 PM 78.1 °F - 67.1 °F 69% 29.66 in 10.0 mi SE 8.1 mph - N/A   Scattered Clouds
9:15 PM 78.1 °F - 68.2 °F 71% 29.66 in 10.0 mi SE 9.2 mph - N/A   Clear
9:35 PM 78.1 °F - 69.3 °F 74% 29.65 in 10.0 mi SE 11.5 mph 16.1 mph N/A   Clear
9:55 PM 77.0 °F - 68.5 °F 75% 29.65 in 10.0 mi SE 11.5 mph 21.9 mph N/A   Clear
10:15 PM 75.6 °F - 68.5 °F 79% 29.65 in 10.0 mi SE 11.5 mph 19.6 mph N/A   Clear
10:35 PM 75.6 °F - 69.8 °F 82% 29.65 in 10.0 mi SE 13.8 mph 17.3 mph N/A   Scattered Clouds
10:55 PM 75.6 °F - 70.0 °F 83% 29.66 in 7.0 mi SSE 12.7 mph 19.6 mph N/A   Mostly Cloudy
11:15 PM 75.6 °F - 70.3 °F 84% 29.66 in 7.0 mi SSE 13.8 mph 18.4 mph N/A   Overcast
11:35 PM 75.6 °F - 70.3 °F 84% 29.65 in 7.0 mi SSE 11.5 mph 17.3 mph N/A   Overcast
11:55 PM 75.6 °F - 70.3 °F 84% 29.64 in 7.0 mi SSE 15.0 mph 20.7 mph N/A   Overcast